Regional Weather Roundup
Issued by NWS

Home | Current Version | Previous Version | Graphics & Text | Print | Product List | Glossary On
Versions: 1 2 3 4 5 6 7 8 9 10 11 12 13 14 15 16 17 18 19 20 21 22 23 24 25 26 27 28 29 30 31 32 33 34 35 36 37 38 39 40 41 42 43 44 45 46 47 48 49 50
000
ASUS45 KBOU 231107
RWRCO

WEATHER ROUNDUP FOR COLORADO
NATIONAL WEATHER SERVICE DENVER/BOULDER CO
400 AM MST MON JAN 23 2017

NOTE: "FAIR" INDICATES FEW OR NO CLOUDS BELOW 12000 FEET WITH NO
SIGNIFICANT WEATHER AND/OR OBSTRUCTIONS TO VISIBILITY.

COZ001>005-013-030-031-231200-
...NORTHWEST COLORADO...

CITY           SKY/WX    TMP DP  RH WIND       PRES   REMARKS
CRAIG          CLOUDY    29  20  69 E5        29.71F WCI  24
HAYDEN         CLOUDY    25  18  74 E12       29.71F WCI  14
MEEKER         CLOUDY    33  24  69 MISG      29.72F
MOUNT WERNER   NOT AVBL
STEAMBOAT SPGS CLOUDY    22  20  92 E3        29.72F
WALDEN           N/A     23  19  86 SW14      29.70S WCI  11
$$

COZ006>008-011-231200-
...WEST CENTRAL VALLEYS...

CITY           SKY/WX    TMP DP  RH WIND       PRES   REMARKS
GRAND JUNCTION CLOUDY    35  30  82 SE13      29.78F WCI  26
MONTROSE       MOCLDY    29  27  92 SE8       29.86F WCI  21
EAGLE          FLURRIES  24  22  91 NE3       29.80F
RIFLE          CLOUDY    29  28  96 SE5       29.80F WCI  24
DELTA          CLOUDY    34  29  84 NE5       29.85F WCI  30
NUCLA          CLOUDY    34  28  80 CALM      29.89F
$$

COZ017>023-064>068-231200-
...SOUTHWEST COLORADO...

CITY           SKY/WX    TMP DP  RH WIND       PRES   REMARKS
DURANGO        MIX PCPN  24  22  91 CALM      29.98S FOG
CORTEZ         CLOUDY    31  26  82 SW8       29.94F WCI  23
PAGOSA SPRINGS CLOUDY    24  22  96 CALM      29.96F
TELLURIDE      NOT AVBL
WOLF CREEK PAS CLOUDY     9   9 100 MISG      29.90S
$$

COZ009-010-012-014-032>034-037-058>063-231200-
...CENTRAL COLORADO...

CITY           SKY/WX    TMP DP  RH WIND       PRES   REMARKS
ASPEN          CLOUDY    24  21  88 SW5       29.75F WCI  18
BUENA VISTA    FLURRIES  24  19  83 CALM      29.78F
COPPER MTN     HVY SNOW  23  16  74 MISG      29.72F VSB 1/4
BERTHOUD PASS  CLOUDY    16   5  62 MISG      29.67R
COTTONWOOD PAS LGT SNOW  23  21  93 SE9       29.76R WCI  13
GUNNISON       FLURRIES  20  17  88 S7        29.86S WCI  11
KREMMLING      CLOUDY    25  19  80 CALM      29.74F
LEADVILLE      LGT SNOW  17  13  84 CALM      29.73F FOG
MONARCH PASS   CLOUDY    12  10  92 SW13G30   29.86S WCI  -3
SALIDA         CLOUDY    31  19  59 S8        29.87R WCI  24
SUNLIGHT       CLOUDY    18  14  86 SW13G20   29.78F WCI   4
WILKERSON PASS FOG       18  14  86 SW16G24   29.75S VSB 3/4 WCI   3
$$

COZ069>075-231200-
...SAN LUIS VALLEY/SANGRE DE CRISTO MOUNTAINS...

CITY           SKY/WX    TMP DP  RH WIND       PRES   REMARKS
ALAMOSA        FAIR      26  20  77 S18G24    29.89F WCI  13
LA VETA PASS   LGT SNOW  21  18  86 N15G32    29.80F VSB 3/4 WCI   8
SAGUACHE       CLOUDY    19  18  93 SE3       29.88F
$$

COZ035-036-038>040-231200-
...NORTHERN COLORADO FRONT RANGE...

CITY           SKY/WX    TMP DP  RH WIND       PRES   REMARKS
DENVER INTL AP FAIR      26  17  68 SW3       29.66F
DMNS CITY PARK   N/A     28  17  62 E9        29.67F WCI  19
AURORA         PTCLDY    27  15  61 W5        29.69S WCI  22
FRONT RANGE AP FAIR      28  21  74 W8        29.68S WCI  20
ERIE MUNI ARPT FAIR      25  20  81 CALM      29.68F
BOULDER MUN AP FAIR      30  19  64 CALM      29.68F
CENTENNIAL     FAIR      28  15  58 N9        29.68S WCI  19
BROOMFIELD     FAIR      32  18  55 SW3       29.68F
FORT COLLINS   FAIR      25  18  74 N7        29.68F WCI  17
LONGMONT       FAIR      30  18  60 W3        29.71S
$$

COZ041-046-047-076>085-087-088-231200-
...PIKES PEAK/PALMER DIVIDE AND SOUTHERN FOOTHILLS...

CITY           SKY/WX    TMP DP  RH WIND       PRES   REMARKS
COLO. SPRINGS  FAIR      24  14  65 N6        29.70F WCI  17
A. F. ACADEMY  FAIR      22  13  70 N7        29.70F WCI  13
SCHRIEVER AFB  NOT AVBL
ELLICOTT       FAIR     N/A N/A N/A NW7       29.69F
FALCON         FAIR      25  14  63 W8        29.70F WCI  16
FORT CARSON    NOT AVBL
LIMON          FAIR      26  18  71 VRB3      29.69F
MONUMENT HILL  FAIR      34  19  55 W6        29.69R WCI  29
TRINIDAD       FAIR      26  18  71 S3        29.80R
$$

COZ042>045-048>051-090-091-231200-
...NORTHEAST COLORADO...

CITY           SKY/WX    TMP DP  RH WIND       PRES   REMARKS
GREELEY ARPT   FAIR      24  21  88 N6        29.69S WCI  17
AKRON          FAIR      31  21  66 S12       29.69F WCI  22
BURLINGTON     FAIR      35  26  69 S18       29.72F WCI  24
WRAY           NOT AVBL
STERLING       FAIR      32  23  69 SE7       29.68F WCI  26
HOLYOKE        FAIR      34  28  80 SE6       29.75F WCI  29
FORT MORGAN    FAIR      29  20  69 E5        29.68F WCI  24
$$

COZ086-089-092>099-231200-
...SOUTHEAST COLORADO...

CITY           SKY/WX    TMP DP  RH WIND       PRES   REMARKS
PUEBLO         FAIR      26  21  81 N7        29.70F WCI  18
LA JUNTA       FAIR      29  22  75 SW9       29.72F WCI  20
LAMAR          FAIR      34  24  67 S16       29.73F WCI  24
SPRINGFIELD      N/A     31  23  72 SW12      29.79F WCI  22
$$



USA.gov is the U.S. government's official web portal to all federal, state and local government web resources and services.